Location: Wildlife_Club
(35.6000°N, 81.4330°W)
Time: 04:29:00
(UTC-04:00)

A-11 Canister half - Pass Details

Date: 22 August 2020
Orbit: 1514 x 1686 km, 47.2° (Epoch: 23 September)

Event Time Altitude Azimuth Distance (km) Brightness Sun altitude
Rises 20:20:49 0° 299° (WNW) 4,756 13.7 -3.8°
Reaches altitude 10° 20:23:59 10° 305° (NW) 3,794 12.6 -4.4°
Maximum altitude 20:33:27 55° 21° (NNE) 1,906 9.5 -6.2°
Drops below altitude 10° 20:43:14 10° 98° (E) 3,914 10.5 -8.1°
Enters shadow 20:43:43 - 99° (E) 4,058 10.6 -8.2°
